Location: Rancho Santa Fe Post Office
(33.0184°N, 117.2026°W)
Time: 04:07:49
(UTC+00:00)

Cosmos 2058 Rocket - Pass Details

Date: 10 September 2024
Orbit: 607 x 634 km, 82.5° (Epoch: 09 October)

Event Time Altitude Azimuth Distance (km) Brightness Sun altitude
Rises 12:24:39 0° 177° (S) 2,874 6.4 -14.2°
Reaches altitude 10° 12:26:52 10° 174° (S) 1,977 5.6 -13.7°
Maximum altitude 12:31:12 61° 94° (E) 706 3.6 -12.9°
Drops below altitude 10° 12:35:35 10° 14° (NNE) 2,007 6.1 -12.0°
Sets 12:37:51 0° 11° (N) 2,923 6.9 -11.5°
